Cloud_Cover
5 5 5 5 5 53 85 96 100 98 61 48 100 100 100 100 100 100 100 100 100 100 100 100 100 100 100 100 100 100 100 100 100 100 100 100 100 100
67 74 7 5 5 5 39 65 100 100 100 97 98 100 100 100 100 100 100 100 100 100 100 100 100 100 100 100 100 100 100 100 100 100 100 100 100 100
100 97 50 56 29 95 81 83 100 99 94 36 99 100 100 100 100 86 100 100 100 100 100 100 100 100 100 100 100 100 100 100 100 100 100 100 100 100
100 84 50 59 65 64 28 51 24 80 90 84 5 67 98 100 100 100 100 94 100 100 100 100 100 100 100 100 100 100 100 100 100 100 100 100 100 100
100 100 78 52 74 92 90 73 50 75 69 88 23 5 72 83 100 71 98 99 98 100 100 100 100 100 100 100 100 100 100 100 100 100 100 100 100 100
100 100 100 100 100 97 78 50 62 69 67 82 36 5 5 78 85 87 57 100 70 92 99 100 100 100 100 100 100 100 100 100 100 100 100 100 100 100
98 96 100 100 100 100 100 100 100 92 69 74 68 5 54 63 100 99 82 78 99 78 85 94 83 98 100 100 100 100 100 100 100 100 100 100 100 100
100 91 96 59 70 45 7 80 62 78 100 100 100 91 95 86 97 100 100 95 84 51 90 98 100 92 91 100 100 100 100 100 100 100 100 100 100 100
73 98 100 64 5 5 0 37 98 94 51 99 100 100 100 90 92 100 91 100 100 82 78 100 80 100 90 100 100 100 100 100 100 100 100 100 100 100
83 49 74 39 10 5 5 1 79 91 97 100 100 100 100 94 99 99 80 100 100 91 60 100 92 95 100 97 96 100 100 100 100 100 100 100 100 100
100 39 5 17 39 5 5 5 53 100 100 100 100 100 100 100 99 91 6 5 57 100 5 100 95 78 100 89 100 86 100 100 100 100 100 100 100 100
100 100 62 41 70 43 7 9 81 98 100 98 100 100 100 100 100 82 100 95 85 88 24 97 93 90 86 100 100 100 85 100 100 100 100 100 100 100
100 100 95 64 80 81 93 93 92 98 100 100 100 100 100 100 100 100 99 100 100 100 82 100 100 99 100 100 100 87 99 100 100 100 100 100 100 100
100 100 98 8 76 98 85 97 98 100 100 100 100 100 100 100 100 100 99 96 100 98 78 67 100 100 100 100 100 100 100 100 100 100 100 100 100 100
46 5 5 28 82 100 30 94 100 100 100 100 100 100 100 100 100 95 100 95 100 99 7 63 100 100 100 100 100 100 100 100 100 100 100 100 100 100
96 95 16 42 94 98 100 100 100 100 100 100 100 100 100 100 100 95 100 100 100 98 64 96 100 100 100 100 100 100 100 100 100 100 100 100 100 100
46 100 100 100 100 100 100 100 100 100 100 100 100 100 100 100 100 90 93 100 75 99 100 100 100 100 100 100 100 100 100 100 100 100 100 100 100 100
90 100 100 100 100 100 100 100 100 100 100 100 100 100 100 100 90 97 76 98 70 13 69 100 100 100 100 100 100 100 100 100 100 100 100 100 100 100
95 100 100 100 99 26 25 77 100 100 100 100 100 100 100 100 100 100 100 89 96 8 5 12 100 100 100 100 100 100 100 100 100 100 100 100 100 100
5 24 91 83 33 5 76 100 100 100 100 100 100 100 100 100 100 100 100 100 100 64 5 5 5 98 100 100 100 100 100 100 100 100 100 100 100 100
5 6 36 63 90 100 100 100 100 100 100 100 100 100 100 100 100 100 100 100 88 91 48 67 27 15 95 100 100 100 100 100 100 100 100 100 100 100
70 5 55 80 100 100 100 100 100 100 100 100 100 100 100 100 100 100 100 100 100 100 97 100 100 100 100 92 100 100 100 100 100 100 100 100 100 100
100 84 100 100 100 100 100 100 100 100 100 100 100 100 100 100 100 100 100 100 100 100 100 100 100 100 100 100 100 100 100 100 100 100 100 100 93 92